Location: Beneden-Haastrecht
(52.0012°N, 4.7557°E)
Time: 02:22:54
(UTC+00:00)

Cosmos 1300 - Pass Details

Date: 24 October 2020
Orbit: 511 x 513 km, 82.5° (Epoch: 24 November)

Event Time Altitude Azimuth Distance (km) Brightness Sun altitude
Rises 18:26:02 0° 203° (SSW) 2,620 6.5 -18.9°
Reaches altitude 10° 18:28:13 10° 209° (SSW) 1,738 5.7 -19.2°
Maximum altitude 18:31:55 49° 285° (WNW) 675 3.6 -19.8°
Drops below altitude 10° 18:35:40 10° 1° (N) 1,753 5.4 -20.3°
Sets 18:37:52 0° 7° (N) 2,645 6.3 -20.7°
